Terminal Aerodrome Forecast
Issued by NWS Portland, OR

Home | Current Version | Previous Version | Text Only | Print | Product List | Glossary On
Versions: 1 2 3 4 5 6 7 8 9 10 11 12 13 14 15 16 17 18 19 20 21 22 23 24 25 26 27
073
FTUS46 KPQR 030531
TAFEUG
TAF
KEUG 030531Z 0306/0406 21006KT P6SM -SHRA VCTS BKN060CB OVC120
     FM030900 21004KT P6SM BKN050 BKN120
     FM031400 VRB03KT P6SM SCT025 BKN050
     FM031900 34008KT P6SM SCT040 SCT070 BKN200
     FM040000 30009KT P6SM -SHRA BKN050 BKN080=

USA.gov is the U.S. government's official web portal to all federal, state and local government web resources and services.